KIIY

Details ICAO KIIY
Name WASHINGTON WILKES CO
Region United States
Timezone America/New_York (UTC-4.0)
Plans Departing 1
Arriving 1
Stats Elevation 645 ft / 197 m (AMSL)
Location 33.779386° -82.815813°
Runways 1
Magnetic Variation 6.247° W
Sunrise 2018-05-24 10:26:15 UTC / 2018-05-24 06:26:15 Local
Sunset 2018-05-25 00:32:52 UTC / 2018-05-24 20:32:52 Local
Advertisement - Login to hide

Runways

ID Width Length Bearing (true) Bearing (mag) Surface Threshold Offset Overrun Length
13 75 ft / 23 m 4,019 ft / 1,225 m 126.17° 132.42° Asphalt 0 ft / 0 m 0 ft / 0 m
31 75 ft / 23 m 4,019 ft / 1,225 m 306.17° 312.42° Asphalt 0 ft / 0 m 0 ft / 0 m

Map

Weather


0- 5 10 15 20 25 30 35+ Temperature / ° C

Clouds and Precipitation
Forecast for 2018-05-25 00:00 UTC. Updated 4 hours ago

Ground ~20,000 ft ~40,000 ft Winds

METAR

KIIY 250335Z AUTO 10003KT 10SM SCT007 OVC012 21/20 A3012 RMK AO2 TSNO

TAF

Not found

Frequencies

Recorded 118.37 MHz AWOS 3
Approach 127.50 MHz ATLANTA APP/DEP
Unicom 122.70 MHz CTAF/UNICOM
Warning: Do not use this data for real-world aviation or navigation. No guarantee of current accuracy is given.